Regional Weather Roundup
Issued by NWS

Home | Current Version | Previous Version | Text Only | Print | Product List | Glossary On
Versions: 1 2 3 4 5 6 7 8 9 10 11 12 13 14 15 16 17 18 19 20 21 22 23 24 25 26 27 28 29 30 31 32 33 34 35 36 37 38 39 40 41 42 43 44 45 46 47 48 49 50
000
ASUS44 KLIX 302113
RWRLA
LOUISIANA WEATHER ROUNDUP
NATIONAL WEATHER SERVICE NEW ORLEANS LA
400 PM CDT SUN APR 30 2017

NOTE: "FAIR" INDICATES FEW OR NO CLOUDS BELOW 12,000 FEET WITH NO
      SIGNIFICANT WEATHER AND/OR OBSTRUCTIONS TO VISIBILITY.
      SKY/WX - SKY CONDITION AND SIGNIFICANT WEATHER.
      TMP - AIR TEMPERATURE.    DP   - DEWPOINT TEMPERATURE.
      RH  - RELATIVE HUMIDITY.  PRES - PRESSURE.
      HX  - HEAT INDEX.         WCI  - WIND CHILL INDEX.

*  THESE STATIONS ARE NOT NWS OR FAA STATIONS AND ARE NOT UNDER
   NWS QUALITY CONTROL.

LAZ040-048-061>063-065-066-069-302200-
SOUTHEAST LOUISIANA

CITY           SKY/WX    TMP DP  RH WIND       PRES   REMARKS
N.O. INTL ARPT CLOUDY    74  71  91 S16G22    29.83R
N.O. LAKEFRONT CLOUDY    73  70  90 S14G22    29.82S
N.O. DOWNTOWN*   N/A     73  69  87 S12G21      N/A
RESERVE*       NOT AVBL
SLIDELL        CLOUDY    71  68  90 SE10      29.82S
BATON ROUGE    MOSUNNY   76  69  79 W9        29.83F HAZE
BOOTHVILLE     LGT RAIN  70  69  97 S12G18    29.88F FOG
BELLE CHASSE   CLOUDY    73  72  96 S14       29.83S
BOGALUSA*      NOT AVBL
GALLIANO*      CLOUDY    73  68  86 SE10G16   29.84F
NEW ROADS*     FAIR      78  63  59 W10       29.84S
GONZALES*      CLOUDY    75  71  86 W6        29.82S
HAMMOND*       CLOUDY    72  68  88 S5        29.82S
HOUMA*         PTSUNNY   79  72  78 S10         N/A
PORT FOURCHON* MOCLDY    73  70  88 S9        29.84S FOG

$$

LAZ041-044-053-054-302200-
SOUTHWEST LOUISIANA

CITY           SKY/WX    TMP DP  RH WIND       PRES   REMARKS
LAKE CHARLES   MOSUNNY   72  53  51 W9G17     29.88F
LAFAYETTE      PTSUNNY   77  62  59 W14       29.86S
PATTERSON      PTSUNNY   75  70  84 W8        29.85R
SALT POINT       N/A     74  67  78 VRB6      29.83S
NEW IBERIA     SUNNY     77  61  57 W12       29.86S
CHENAULT AIRPK NOT AVBL

$$

LAZ027-028-302200-
CENTRAL LOUISIANA

CITY           SKY/WX    TMP DP  RH WIND       PRES   REMARKS
FORT POLK      PTSUNNY   67  48  50 W9        29.87F
ALEXANDRIA INT CLOUDY    64  53  67 SW10      29.86F
ALEXANDRIA     CLOUDY    66  55  67 VRB6      29.86F

$$

LAZ001-002-302200-
NORTHWEST LOUISIANA

CITY           SKY/WX    TMP DP  RH WIND       PRES   REMARKS
SHREVEPORT     MOSUNNY   67  45  45 SW15G22   29.83S
BARKSDALE AFB  MOSUNNY   66  44  45 SW14      29.83S
DTN SHREVEPORT SUNNY     68  47  46 SW14G26   29.83S

$$

LAZ014-016-302200-
NORTHEAST LOUISIANA

CITY           SKY/WX    TMP DP  RH WIND       PRES   REMARKS
MONROE         CLOUDY    62  54  74 SW12      29.84F
TALLULAH       CLOUDY    77  65  66 VRB7      29.79F

$$




USA.gov is the U.S. government's official web portal to all federal, state and local government web resources and services.